When you browse on this site, cookies collect data to enhance your experience and personalize the content and advertising you see.
Visit our Privacy Policy to learn more. By continuing to use the site, you agree to this use of cookies and data.
  • In Austria
  • List of Countries
  • For 7 days
  • Water Temperature
  • Satellite Maps
  • Weather Map
  • News
  • Weather Widgets
  • user-avatar
    Login

    Hourly Weather Thessaloniki

    Today, 18 November, Sunday

    Time Temperature Precipitation Wind Pressure Humidity
    00:00 +8°C° 0.2 mm 3 mps 764 mmHg 71%
    01:00 +8°C° 0.2 mm 3 mps 764 mmHg 71%
    02:00 +7°C° 0.2 mm 3 mps 764 mmHg 71%
    03:00 +7°C° 0.5 mm 3 mps 764 mmHg 72%
    04:00 +7°C° 0.5 mm 3 mps 763 mmHg 73%
    05:00 +7°C° 0.5 mm 3 mps 763 mmHg 74%
    06:00 +7°C° 0.6 mm 3 mps 763 mmHg 75%
    07:00 +7°C° 0.6 mm 3 mps 762 mmHg 76%
    08:00 +7°C° 0.6 mm 3 mps 762 mmHg 77%
    09:00 +7°C° 0.9 mm 3 mps 762 mmHg 77%
    10:00 +8°C° 0.9 mm 3 mps 761 mmHg 78%
    11:00 +8°C° 0.9 mm 3 mps 761 mmHg 78%
    12:00 +9°C° 1.3 mm 3 mps 760 mmHg 79%
    13:00 +9°C° 1.3 mm 3 mps 759 mmHg 81%
    14:00 +9°C° 1.3 mm 3 mps 758 mmHg 82%
    15:00 +9°C° 1.6 mm 3 mps 757 mmHg 85%
    16:00 +9°C° 1.6 mm 3 mps 757 mmHg 87%
    17:00 +8°C° 1.6 mm 3 mps 756 mmHg 89%
    18:00 +8°C° 2.5 mm 3 mps 755 mmHg 89%
    19:00 +7°C° 2.5 mm 4 mps 755 mmHg 90%
    20:00 +7°C° 2.5 mm 4 mps 755 mmHg 90%
    21:00 +8°C° 1.5 mm 3 mps 754 mmHg 90%
    22:00 +8°C° 1.5 mm 3 mps 754 mmHg 89%
    23:00 +9°C° 1.5 mm 3 mps 754 mmHg 88%

    Tomorrow, 19 November, Monday

    Time Temperature Precipitation Wind Pressure Humidity
    00:00 +9°C° 0.3 mm 2 mps 753 mmHg 87%
    01:00 +9°C° 0.3 mm 2 mps 753 mmHg 86%
    02:00 +9°C° 0.3 mm 2 mps 753 mmHg 85%
    03:00 +9°C° 0 mm 2 mps 753 mmHg 85%
    04:00 +8°C° 0 mm 2 mps 753 mmHg 85%
    05:00 +8°C° 0 mm 2 mps 753 mmHg 85%
    06:00 +8°C° 0 mm 2 mps 753 mmHg 84%
    07:00 +8°C° 0 mm 2 mps 754 mmHg 83%
    08:00 +8°C° 0 mm 2 mps 754 mmHg 81%
    09:00 +9°C° 0 mm 2 mps 755 mmHg 76%
    10:00 +12°C° 0 mm 2 mps 755 mmHg 70%
    11:00 +13°C° 0 mm 2 mps 755 mmHg 64%
    12:00 +14°C° 0 mm 2 mps 755 mmHg 61%
    13:00 +15°C° 0 mm 2 mps 755 mmHg 59%
    14:00 +16°C° 0 mm 2 mps 755 mmHg 56%
    15:00 +15°C° 0 mm 2 mps 755 mmHg 58%
    16:00 +14°C° 0 mm 1 mps 756 mmHg 61%
    17:00 +13°C° 0 mm 1 mps 756 mmHg 63%
    18:00 +13°C° 0 mm 1 mps 757 mmHg 65%
    19:00 +12°C° 0 mm 1 mps 757 mmHg 66%
    20:00 +12°C° 0 mm 1 mps 758 mmHg 68%
    21:00 +12°C° 0 mm 1 mps 758 mmHg 69%
    22:00 +12°C° 0 mm 1 mps 759 mmHg 70%
    23:00 +12°C° 0 mm 1 mps 759 mmHg 71%

    Day after tomorrow, 20 November, Tuesday

    Time Temperature Precipitation Wind Pressure Humidity
    00:00 +12°C° 0 mm 1 mps 759 mmHg 73%
    01:00 +12°C° 0 mm 1 mps 759 mmHg 75%
    02:00 +12°C° 0 mm 2 mps 760 mmHg 77%
    03:00 +12°C° 0.1 mm 2 mps 759 mmHg 80%
    04:00 +12°C° 0.1 mm 2 mps 759 mmHg 83%
    05:00 +12°C° 0.1 mm 2 mps 759 mmHg 86%
    06:00 +12°C° 0.1 mm 2 mps 759 mmHg 86%
    07:00 +12°C° 0.1 mm 2 mps 759 mmHg 87%
    08:00 +11°C° 0.1 mm 3 mps 759 mmHg 88%
    09:00 +12°C° 0.2 mm 3 mps 759 mmHg 86%
    10:00 +12°C° 0.2 mm 3 mps 759 mmHg 85%
    11:00 +13°C° 0.2 mm 4 mps 759 mmHg 83%
    12:00 +13°C° 0.3 mm 4 mps 759 mmHg 83%
    13:00 +13°C° 0.3 mm 4 mps 758 mmHg 83%
    14:00 +14°C° 0.3 mm 4 mps 758 mmHg 83%
    15:00 +14°C° 0.1 mm 3 mps 758 mmHg 84%
    16:00 +14°C° 0.1 mm 3 mps 757 mmHg 85%
    17:00 +13°C° 0.1 mm 3 mps 757 mmHg 87%
    18:00 +13°C° 0.1 mm 3 mps 757 mmHg 88%
    19:00 +13°C° 0.1 mm 3 mps 757 mmHg 89%
    20:00 +13°C° 0.1 mm 3 mps 757 mmHg 90%
    21:00 +13°C° 0.2 mm 3 mps 757 mmHg 90%
    22:00 +13°C° 0.2 mm 3 mps 756 mmHg 91%
    23:00 +14°C° 0.2 mm 3 mps 756 mmHg 91%

    21 November, Wednesday

    Time Temperature Precipitation Wind Pressure Humidity
    00:00 +14°C° 0.4 mm 3 mps 755 mmHg 92%
    01:00 +14°C° 0.4 mm 3 mps 754 mmHg 92%
    02:00 +14°C° 0.4 mm 3 mps 754 mmHg 93%
    03:00 +14°C° 1.8 mm 3 mps 753 mmHg 92%
    04:00 +16°C° 1.8 mm 3 mps 752 mmHg 92%
    05:00 +16°C° 1.8 mm 3 mps 752 mmHg 92%
    06:00 +16°C° 0.4 mm 3 mps 752 mmHg 91%
    07:00 +14°C° 0.4 mm 3 mps 752 mmHg 91%
    08:00 +15°C° 0.4 mm 2 mps 752 mmHg 91%
    09:00 +16°C° 0.1 mm 3 mps 752 mmHg 85%
    10:00 +17°C° 0.1 mm 3 mps 752 mmHg 79%
    11:00 +18°C° 0.1 mm 3 mps 753 mmHg 73%
    12:00 +18°C° 0 mm 3 mps 753 mmHg 69%
    13:00 +18°C° 0 mm 3 mps 753 mmHg 66%
    14:00 +19°C° 0 mm 4 mps 753 mmHg 62%
    15:00 +18°C° 0.1 mm 4 mps 753 mmHg 66%
    16:00 +17°C° 0.1 mm 3 mps 754 mmHg 69%
    17:00 +16°C° 0.1 mm 3 mps 754 mmHg 73%
    18:00 +16°C° 0 mm 3 mps 755 mmHg 74%
    19:00 +14°C° 0 mm 4 mps 755 mmHg 76%
    20:00 +13°C° 0 mm 4 mps 756 mmHg 77%
    21:00 +13°C° 0 mm 4 mps 756 mmHg 78%
    22:00 +13°C° 0 mm 4 mps 757 mmHg 78%
    23:00 +13°C° 0 mm 4 mps 757 mmHg 79%

    22 November, Thursday

    Time Temperature Precipitation Wind Pressure Humidity
    00:00 +12°C° 0 mm 4 mps 757 mmHg 79%
    01:00 +12°C° 0 mm 4 mps 758 mmHg 80%
    02:00 +12°C° 0 mm 4 mps 758 mmHg 80%
    03:00 +11°C° 0 mm 4 mps 758 mmHg 81%
    04:00 +11°C° 0 mm 3 mps 758 mmHg 81%
    05:00 +11°C° 0 mm 3 mps 759 mmHg 81%
    06:00 +11°C° 0 mm 3 mps 759 mmHg 81%
    07:00 +10°C° 0 mm 3 mps 759 mmHg 80%
    08:00 +10°C° 0 mm 3 mps 760 mmHg 79%
    09:00 +13°C° 0 mm 2 mps 760 mmHg 72%
    10:00 +14°C° 0 mm 2 mps 760 mmHg 64%
    11:00 +16°C° 0 mm 2 mps 760 mmHg 56%
    12:00 +17°C° 0 mm 2 mps 760 mmHg 53%
    13:00 +17°C° 0 mm 2 mps 760 mmHg 49%
    14:00 +18°C° 0 mm 2 mps 760 mmHg 45%
    15:00 +18°C° 0 mm 1 mps 760 mmHg 49%
    16:00 +16°C° 0 mm 1 mps 760 mmHg 52%
    17:00 +16°C° 0 mm 1 mps 760 mmHg 55%
    18:00 +15°C° 0 mm 1 mps 761 mmHg 59%
    19:00 +14°C° 0 mm 1 mps 761 mmHg 62%
    20:00 +14°C° 0 mm 1 mps 762 mmHg 66%
    21:00 +14°C° 0 mm 1 mps 762 mmHg 69%
    22:00 +13°C° 0 mm 1 mps 762 mmHg 72%
    23:00 +13°C° 0 mm 1 mps 763 mmHg 76%

    23 November, Friday

    Time Temperature Precipitation Wind Pressure Humidity
    00:00 +13°C° 0 mm 1 mps 763 mmHg 77%
    01:00 +13°C° 0 mm 1 mps 763 mmHg 79%
    02:00 +12°C° 0 mm 1 mps 763 mmHg 81%
    03:00 +12°C° 0 mm 1 mps 763 mmHg 82%
    04:00 +12°C° 0 mm 1 mps 763 mmHg 82%
    05:00 +12°C° 0 mm 1 mps 764 mmHg 83%
    06:00 +12°C° 0.1 mm 1 mps 764 mmHg 83%
    07:00 +12°C° 0.1 mm 1 mps 764 mmHg 83%
    08:00 +12°C° 0.1 mm 1 mps 765 mmHg 83%
    09:00 +13°C° 0.1 mm 1 mps 765 mmHg 80%
    10:00 +14°C° 0.1 mm 1 mps 765 mmHg 77%
    11:00 +15°C° 0.1 mm 1 mps 765 mmHg 74%
    12:00 +15°C° 0.1 mm 1 mps 765 mmHg 72%
    13:00 +15°C° 0.1 mm 2 mps 765 mmHg 70%
    14:00 +16°C° 0.1 mm 2 mps 764 mmHg 69%
    15:00 +15°C° 0 mm 2 mps 764 mmHg 72%
    16:00 +15°C° 0 mm 2 mps 765 mmHg 74%
    17:00 +14°C° 0 mm 2 mps 765 mmHg 77%
    18:00 +14°C° 0 mm 2 mps 765 mmHg 79%
    19:00 +13°C° 0 mm 2 mps 765 mmHg 82%
    20:00 +13°C° 0 mm 2 mps 766 mmHg 84%
    21:00 +13°C° 0 mm 2 mps 766 mmHg 83%
    22:00 +13°C° 0 mm 2 mps 766 mmHg 83%
    23:00 +13°C° 0 mm 2 mps 766 mmHg 83%
    Show more